Location: Biltmore Gardens
(41.6070°N, 83.4666°W)
Time: 01:40:17
(UTC+00:00)

BREEZE-M DEB (TANK) - Visible Passes

Search period start: 24 October 2020 00:00
Search period end: 03 November 2020 00:00
Orbit: 433 x 13232 km, 46.0° (Epoch: 22 October)

Date Brightness Start Highest point End Pass type
(mag) Time Alt. Az. Time Alt. Az. Time Alt. Az.
24 Oct 10.3 09:26:56 10° ESE 10:27:42 21° E 11:13:59 10° ENE visible
25 Oct 7.5 00:23:00 10° WNW 00:34:05 16° W 00:40:05 10° SW visible
25 Oct 9.8 10:17:17 10° SSE 11:40:13 39° ESE 12:40:22 10° ENE visible
26 Oct 9.4 11:23:35 10° S 12:58:03 57° ESE 14:00:31 10° ENE visible
27 Oct 10.3 08:56:40 10° ESE 09:46:18 17° E 10:26:22 10° ENE visible
27 Oct 7.5 23:36:19 10° WNW 23:54:48 21° W 00:02:28 10° SW visible
28 Oct 9.8 09:39:25 10° SSE 10:57:03 34° E 11:57:04 10° ENE visible
29 Oct 9.6 10:43:22 10° S 12:12:56 53° ESE 13:18:34 10° ENE visible
30 Oct 10.4 08:31:56 10° E 09:05:21 13° E 09:34:21 10° ENE visible
30 Oct 7.5 22:49:14 10° WNW 23:15:24 28° WSW 23:24:10 10° SSW visible
31 Oct 9.8 09:02:36 10° SE 10:14:23 30° E 11:12:56 10° ENE visible
01 Nov 9.5 10:03:40 10° SSE 11:28:20 48° ESE 12:36:11 10° ENE visible
02 Nov 9.4 11:13:50 10° S 12:48:28 66° ESE 13:55:40 10° ENE visible
